Location: Acequia del Cap
(41.7000°N, 0.6167°E)
Time: 01:39:45
(UTC+00:00)

ATLAS CENTAUR R/B - Pass Details

Date: 07 August 2020
Orbit: 476 x 670 km, 64.7° (Epoch: 19 September)

Event Time Altitude Azimuth Distance (km) Brightness Sun altitude
Exits shadow 03:26:18 - 168° (SSE) 2,327 4.2 -15.5°
Reaches altitude 10° 03:27:44 10° 157° (SSE) 1,879 3.9 -15.3°
Maximum altitude 03:30:39 18° 113° (ESE) 1,385 3.7 -14.8°
Drops below altitude 10° 03:33:28 10° 69° (ENE) 1,805 5.2 -14.4°
Sets 03:36:06 0° 50° (NE) 2,662 6.8 -14.0°
